When you browse on this site, cookies collect data to enhance your experience and personalize the content and advertising you see.
Visit our Privacy Policy to learn more. By continuing to use the site, you agree to this use of cookies and data.
  • în România
  • Lista ţărilor
  • Pe 7 zile
  • Temperatura apei
  • Meteo pe hartă
  • Widget-uri
  • user-avatar
    Intrare

    Meteo pe oră la Bucureşti

    Astăzi, 18 Octombrie, Vineri

    Timp Temperatura Precipitaţii Vânt Presiune Umiditate
    00:00 +16°C° 0 mm 1 m/s 757 mmHg 66%
    01:00 +15°C° 0 mm 0 m/s 757 mmHg 67%
    02:00 +15°C° 0 mm 0 m/s 757 mmHg 69%
    03:00 +14°C° 0 mm 0 m/s 757 mmHg 70%
    04:00 +14°C° 0 mm 0 m/s 757 mmHg 71%
    05:00 +14°C° 0 mm 0 m/s 757 mmHg 72%
    06:00 +14°C° 0 mm 0 m/s 757 mmHg 70%
    07:00 +15°C° 0 mm 0 m/s 757 mmHg 68%
    08:00 +15°C° 0 mm 0 m/s 757 mmHg 66%
    09:00 +17°C° 0 mm 0 m/s 757 mmHg 60%
    10:00 +19°C° 0 mm 0 m/s 757 mmHg 54%
    11:00 +20°C° 0 mm 0 m/s 757 mmHg 48%
    12:00 +21°C° 0 mm 0 m/s 757 mmHg 45%
    13:00 +22°C° 0 mm 0 m/s 756 mmHg 42%
    14:00 +25°C° 0 mm 1 m/s 756 mmHg 39%
    15:00 +25°C° 0 mm 1 m/s 756 mmHg 41%
    16:00 +24°C° 0 mm 1 m/s 755 mmHg 43%
    17:00 +23°C° 0 mm 1 m/s 755 mmHg 45%
    18:00 +22°C° 0 mm 1 m/s 755 mmHg 47%
    19:00 +21°C° 0 mm 1 m/s 755 mmHg 50%
    20:00 +20°C° 0 mm 1 m/s 756 mmHg 53%
    21:00 +20°C° 0 mm 1 m/s 756 mmHg 55%
    22:00 +19°C° 0 mm 1 m/s 756 mmHg 56%
    23:00 +19°C° 0 mm 1 m/s 756 mmHg 58%

    Mâine, 19 Octombrie, Sâmbătă

    Timp Temperatura Precipitaţii Vânt Presiune Umiditate
    00:00 +18°C° 0 mm 1 m/s 756 mmHg 59%
    01:00 +18°C° 0 mm 1 m/s 756 mmHg 60%
    02:00 +16°C° 0 mm 1 m/s 756 mmHg 61%
    03:00 +16°C° 0 mm 1 m/s 756 mmHg 62%
    04:00 +16°C° 0 mm 1 m/s 756 mmHg 63%
    05:00 +16°C° 0 mm 1 m/s 756 mmHg 64%
    06:00 +16°C° 0 mm 1 m/s 756 mmHg 63%
    07:00 +18°C° 0 mm 1 m/s 757 mmHg 61%
    08:00 +18°C° 0 mm 1 m/s 757 mmHg 60%
    09:00 +20°C° 0 mm 1 m/s 757 mmHg 54%
    10:00 +21°C° 0 mm 1 m/s 757 mmHg 48%
    11:00 +23°C° 0 mm 1 m/s 757 mmHg 43%
    12:00 +24°C° 0 mm 1 m/s 757 mmHg 40%
    13:00 +25°C° 0 mm 1 m/s 756 mmHg 38%
    14:00 +26°C° 0 mm 1 m/s 756 mmHg 35%
    15:00 +25°C° 0 mm 1 m/s 756 mmHg 37%
    16:00 +25°C° 0 mm 1 m/s 756 mmHg 39%
    17:00 +24°C° 0 mm 1 m/s 756 mmHg 41%
    18:00 +23°C° 0 mm 1 m/s 756 mmHg 43%
    19:00 +21°C° 0 mm 2 m/s 756 mmHg 46%
    20:00 +20°C° 0 mm 2 m/s 757 mmHg 48%
    21:00 +20°C° 0 mm 2 m/s 757 mmHg 50%
    22:00 +19°C° 0 mm 2 m/s 757 mmHg 52%
    23:00 +18°C° 0 mm 2 m/s 757 mmHg 54%

    Poimâine, 20 Octombrie, Duminică

    Timp Temperatura Precipitaţii Vânt Presiune Umiditate
    00:00 +18°C° 0 mm 2 m/s 757 mmHg 56%
    01:00 +17°C° 0 mm 2 m/s 757 mmHg 59%
    02:00 +17°C° 0 mm 2 m/s 757 mmHg 62%
    03:00 +17°C° 0 mm 2 m/s 757 mmHg 65%
    04:00 +16°C° 0 mm 2 m/s 757 mmHg 68%
    05:00 +16°C° 0 mm 2 m/s 758 mmHg 71%
    06:00 +16°C° 0 mm 2 m/s 758 mmHg 71%
    07:00 +16°C° 0 mm 2 m/s 758 mmHg 71%
    08:00 +17°C° 0 mm 2 m/s 758 mmHg 70%
    09:00 +19°C° 0 mm 2 m/s 758 mmHg 63%
    10:00 +21°C° 0 mm 2 m/s 758 mmHg 55%
    11:00 +24°C° 0 mm 2 m/s 758 mmHg 48%
    12:00 +25°C° 0 mm 1 m/s 758 mmHg 44%
    13:00 +26°C° 0 mm 1 m/s 758 mmHg 40%
    14:00 +27°C° 0 mm 1 m/s 757 mmHg 37%
    15:00 +26°C° 0 mm 1 m/s 757 mmHg 38%
    16:00 +25°C° 0 mm 1 m/s 757 mmHg 40%
    17:00 +25°C° 0 mm 1 m/s 757 mmHg 42%
    18:00 +24°C° 0 mm 1 m/s 758 mmHg 44%
    19:00 +23°C° 0 mm 2 m/s 758 mmHg 46%
    20:00 +21°C° 0 mm 2 m/s 758 mmHg 49%
    21:00 +20°C° 0 mm 2 m/s 758 mmHg 51%
    22:00 +20°C° 0 mm 2 m/s 759 mmHg 53%
    23:00 +19°C° 0 mm 2 m/s 759 mmHg 56%

    21 Octombrie, Luni

    Timp Temperatura Precipitaţii Vânt Presiune Umiditate
    00:00 +18°C° 0 mm 2 m/s 759 mmHg 58%
    01:00 +18°C° 0 mm 2 m/s 758 mmHg 60%
    02:00 +18°C° 0 mm 1 m/s 758 mmHg 63%
    03:00 +18°C° 0 mm 1 m/s 758 mmHg 65%
    04:00 +18°C° 0 mm 1 m/s 758 mmHg 67%
    05:00 +16°C° 0 mm 1 m/s 758 mmHg 69%
    06:00 +18°C° 0 mm 1 m/s 759 mmHg 68%
    07:00 +18°C° 0 mm 1 m/s 759 mmHg 67%
    08:00 +18°C° 0 mm 1 m/s 759 mmHg 66%
    09:00 +20°C° 0 mm 1 m/s 759 mmHg 60%
    10:00 +22°C° 0 mm 1 m/s 759 mmHg 53%
    11:00 +24°C° 0 mm 1 m/s 759 mmHg 47%
    12:00 +23°C° 0 mm 0 m/s 759 mmHg 44%
    13:00 +24°C° 0 mm 0 m/s 759 mmHg 40%
    14:00 +25°C° 0 mm 0 m/s 758 mmHg 37%
    15:00 +24°C° 0 mm 0 m/s 758 mmHg 39%
    16:00 +24°C° 0 mm 0 m/s 758 mmHg 41%
    17:00 +23°C° 0 mm 0 m/s 758 mmHg 43%
    18:00 +22°C° 0 mm 0 m/s 758 mmHg 45%
    19:00 +21°C° 0 mm 0 m/s 758 mmHg 47%
    20:00 +20°C° 0 mm 0 m/s 759 mmHg 49%
    21:00 +20°C° 0 mm 0 m/s 759 mmHg 50%
    22:00 +21°C° 0 mm 1 m/s 759 mmHg 52%
    23:00 +21°C° 0 mm 1 m/s 759 mmHg 53%

    22 Octombrie, Marţi

    Timp Temperatura Precipitaţii Vânt Presiune Umiditate
    00:00 +18°C° 0 mm 0 m/s 759 mmHg 55%
    01:00 +18°C° 0 mm 0 m/s 759 mmHg 56%
    02:00 +17°C° 0 mm 0 m/s 759 mmHg 58%
    03:00 +17°C° 0 mm 0 m/s 759 mmHg 59%
    04:00 +19°C° 0 mm 1 m/s 759 mmHg 60%
    05:00 +18°C° 0 mm 1 m/s 759 mmHg 62%
    06:00 +19°C° 0 mm 1 m/s 759 mmHg 61%
    07:00 +19°C° 0 mm 1 m/s 759 mmHg 60%
    08:00 +20°C° 0 mm 1 m/s 759 mmHg 59%
    09:00 +21°C° 0 mm 1 m/s 759 mmHg 53%
    10:00 +23°C° 0 mm 1 m/s 759 mmHg 47%
    11:00 +25°C° 0 mm 1 m/s 759 mmHg 41%
    12:00 +26°C° 0 mm 1 m/s 759 mmHg 39%
    13:00 +27°C° 0 mm 1 m/s 758 mmHg 36%
    14:00 +28°C° 0 mm 1 m/s 758 mmHg 34%
    15:00 +27°C° 0 mm 1 m/s 758 mmHg 36%
    16:00 +26°C° 0 mm 1 m/s 758 mmHg 38%
    17:00 +25°C° 0 mm 2 m/s 758 mmHg 40%
    18:00 +24°C° 0 mm 2 m/s 758 mmHg 43%
    19:00 +23°C° 0 mm 2 m/s 758 mmHg 46%
    20:00 +21°C° 0 mm 3 m/s 759 mmHg 49%
    21:00 +21°C° 0 mm 3 m/s 759 mmHg 52%
    22:00 +20°C° 0 mm 3 m/s 759 mmHg 54%
    23:00 +19°C° 0 mm 4 m/s 760 mmHg 56%

    23 Octombrie, Miercuri

    Timp Temperatura Precipitaţii Vânt Presiune Umiditate
    00:00 +19°C° 0 mm 4 m/s 760 mmHg 59%
    01:00 +19°C° 0 mm 4 m/s 760 mmHg 62%
    02:00 +18°C° 0 mm 4 m/s 760 mmHg 65%
    03:00 +18°C° 0 mm 4 m/s 760 mmHg 66%
    04:00 +17°C° 0 mm 4 m/s 760 mmHg 67%
    05:00 +17°C° 0 mm 4 m/s 760 mmHg 68%
    06:00 +17°C° 0 mm 4 m/s 760 mmHg 66%
    07:00 +17°C° 0 mm 4 m/s 761 mmHg 64%
    08:00 +16°C° 0 mm 5 m/s 761 mmHg 62%
    09:00 +19°C° 0 mm 5 m/s 761 mmHg 57%
    10:00 +20°C° 0 mm 5 m/s 761 mmHg 53%
    11:00 +21°C° 0 mm 5 m/s 761 mmHg 48%
    12:00 +21°C° 0 mm 5 m/s 760 mmHg 46%
    13:00 +22°C° 0 mm 4 m/s 760 mmHg 44%
    14:00 +23°C° 0 mm 4 m/s 760 mmHg 42%
    15:00 +22°C° 0 mm 4 m/s 760 mmHg 43%
    16:00 +21°C° 0 mm 3 m/s 759 mmHg 45%
    17:00 +21°C° 0 mm 3 m/s 759 mmHg 47%
    18:00 +20°C° 0 mm 3 m/s 760 mmHg 49%
    19:00 +19°C° 0 mm 3 m/s 760 mmHg 51%
    20:00 +18°C° 0 mm 3 m/s 760 mmHg 53%
    21:00 +17°C° 0 mm 3 m/s 760 mmHg 55%
    22:00 +17°C° 0 mm 3 m/s 760 mmHg 56%
    23:00 +16°C° 0 mm 3 m/s 761 mmHg 58%
    Arată mai mult